Location: Arrington
(35.8681°N, 86.7092°W)
Time: 15:38:38
(UTC+00:00)

OAO 3 Rocket - Pass Details

Date: 23 November 2019
Orbit: 629 x 682 km, 35.0° (Epoch: 07 December)

Event Time Altitude Azimuth Distance (km) Brightness Sun altitude
Exits shadow 10:27:15 36° 192° (SSW) 1,043 4.1 -24.8°
Drops below altitude 10° 10:31:18 10° 136° (SE) 2,062 6.4 -24.0°
Sets 10:33:47 0° 128° (SE) 2,962 7.5 -23.5°
